Terug naar catalogus

ION SCV-011

ActiefWetenschapPO
NORAD 56957·PAYLOAD·🇮🇹 Italy

Gelanceerd Jun 12, 2023 vanaf Vandenberg Space Force Base

Loading…

Volgende Passages (komende 24 uur)

TLE

VersSource: Space-Track

Epoch: Sep 13, 2026, 23:47 UTC

1 56957U 23084AB  26256.99097399  .00004217  00000-0  15009-3 0  9997
2 56957  98.1357  92.5572 0008483  88.8090 271.4120 15.29582284179384

Volg ION SCV-011 in realtime met AllMySat

Download on the App Store